TIANMU-1 13
Last updated on Wed Sep 23 2026 00:03:10 GMT+0000 (Coordinated Universal Time)
1 58647U 23205C 26265.61915166 .00003584 00000+0 13595-3 0 9993
2 58647 97.3449 285.7064 0005877 3.1404 356.9871 15.27493587152377
Next 0 passes for location: London (51.5072 / 0.1276)
No passes found over London.